Weather in Veliky Bichkov

Ukraine / Zakarpattia District     47°58′18″N   24°00′02″E
temp.,
°C
wind,
m/s
gust,
m/s
humid.,
%
clouds,
%
prec.,
mm/h
press.,
hPa
HPBL,
m
26 july, mon
mon2600:00+16e22735 0.0 101818
03:00+15e22727 0.0 101717
06:00+15e2270100 0.0 101718
09:00+21se126587 0.0 1017198
12:00+26s245233 0.0 1017913
15:00+28ssw344755 0.0 10161234
18:00+28s245464 0.0 10151414
21:00+22ese227796 0.1 101516
27 july, tue
tue2700:00+19e227850 0.1 101636
03:00+17e3395100 1.6 101967
06:00+17ese2196100 1.3 101925
09:00+21se22855 1.9 1018197
12:00+27s35585 0.4 10171029
15:00+29sw465032 0.4 10171931
18:00+28se13666 0.1 1015436
21:00+23sse2276100 0.2 101514
28 july, wed
wed2800:00+21ese11755 0.0 101614
03:00+19ese117910 0.0 101712
06:00+17e118215 0.1 101712
09:00+23se127043 0.3 1016201
12:00+29sw25495 0.0 10161231
15:00+30wsw36410 0.0 10151988
18:00+30s24505 0.0 10121127
21:00+22ene448393 0.8 101365
29 july, thu
thu2900:00+19ese33892 0.1 101449
03:00+17ese228789 0.1 101421
06:00+17e228631 0.0 101316
09:00+22se11685 0.0 1014241
12:00+27wsw12533 0.0 10141096
15:00+28wsw23510 0.0 10141509
18:00+27wnw34611 0.1 1013955
21:00+21e11800 0.2 101411
30 july, fri
fri3000:00+18e21881 0.0 101517
03:00+17ene21900 0.0 101517
06:00+16e21900 0.0 101417
09:00+22se12690 0.0 1013223
12:00+28s24460 0.0 1012796
15:00+30s23390 0.0 10101405
18:00+29s25540 0.0 1008683
21:00+24ese226610 0.0 100720